Dewpoint
53 53 53 54 54 54 53 53 53 53 53 57 56 55 53 53 55 57 59 60 60 59 56 55 54 52 50 48 47 44 41 40
49 50 53 53 54 53 52 52 53 56 56 55 53 53 52 52 55 58 60 61 60 60 59 56 53 51 49 50 48 42 41 42
48 47 50 51 51 51 51 52 56 58 58 56 53 52 52 51 55 58 60 61 61 60 59 55 53 52 52 48 45 43 44 44
48 48 47 50 50 50 51 54 57 57 57 54 51 51 50 50 58 60 60 61 60 59 58 55 54 53 51 49 48 45 43 43
48 49 49 48 49 50 52 52 55 56 55 52 50 48 48 50 57 59 60 60 59 58 57 56 54 53 51 50 48 46 46 43
47 48 50 50 51 53 53 52 52 52 54 54 52 50 50 50 52 58 59 59 58 57 57 55 54 53 52 50 47 47 48 42
44 47 48 51 52 53 54 54 53 53 55 53 55 52 52 52 56 57 58 58 58 57 56 55 55 54 51 50 49 48 42 42
45 46 46 47 50 53 54 55 53 53 57 56 56 57 54 54 56 57 58 57 56 56 55 54 54 53 51 50 50 47 42 39
41 41 47 47 48 52 53 53 53 53 55 57 58 57 57 56 57 58 57 57 56 55 55 54 53 52 51 51 48 44 42 42
39 42 42 46 48 52 54 53 53 53 55 57 58 59 58 58 59 59 58 57 56 55 54 53 52 51 49 47 45 43 43 42
36 38 44 44 47 50 54 54 53 54 54 56 58 59 60 59 60 59 57 57 54 54 52 51 49 48 47 45 44 43 42 42
35 37 39 46 47 48 53 55 54 54 54 56 58 59 59 59 58 58 57 56 54 53 50 47 45 44 43 43 43 42 41 40
36 37 38 40 46 49 52 54 54 54 53 57 58 59 58 58 58 56 54 53 50 48 46 44 43 43 43 43 42 41 40 40
34 39 40 40 42 46 50 54 55 55 55 58 58 56 54 52 50 49 49 48 46 45 44 44 43 43 42 42 41 41 42 41
30 38 41 43 45 47 49 55 56 56 56 54 52 50 49 48 47 47 46 46 45 44 44 43 42 41 41 41 42 42 41 40
25 30 42 46 50 56 55 54 53 53 51 49 48 47 47 46 46 46 46 45 44 43 42 42 41 42 42 42 41 40 38 38
32 29 45 50 55 53 51 50 50 49 48 47 47 46 46 45 45 44 43 43 42 41 41 42 42 41 39 38 35 36 35 33
39 38 51 54 52 51 49 49 48 47 46 46 46 45 44 44 43 43 42 42 42 40 40 40 39 39 37 36 34 31 29 29
42 49 52 52 51 50 48 47 47 46 46 46 45 44 42 41 40 39 39 38 38 40 40 40 39 32 31 30 28 29 29 30
Wind_Speed
24 25 24 26 25 22 23 24 24 22 20 16 15 17 18 15 13 14 15 13 13 11 12 14 14 10 9 8 9 9 8 9
24 26 30 27 26 26 27 23 24 21 21 18 17 14 14 12 12 16 18 15 14 12 12 12 13 11 13 14 6 8 5 3
21 26 28 27 28 28 28 27 23 20 18 18 17 18 19 18 17 16 15 16 16 15 14 14 14 12 13 13 11 7 8 9
25 27 30 32 30 29 27 29 28 26 25 20 16 16 15 16 17 15 15 16 15 15 16 13 17 15 14 15 13 13 13 8
25 28 27 30 32 29 29 25 28 26 23 20 21 16 15 13 16 15 14 15 15 17 16 15 16 14 12 17 15 13 12 12
32 31 30 32 29 29 23 19 21 21 22 14 18 16 16 15 15 19 15 14 14 15 12 13 13 16 13 15 15 17 10 7
25 30 31 30 30 27 27 25 22 19 23 23 17 22 17 16 17 17 17 17 16 14 11 12 12 13 13 12 13 14 12 8
31 31 30 29 30 29 25 26 26 23 25 24 23 18 22 16 16 19 18 14 13 16 14 13 13 13 13 8 12 9 15 12
27 27 32 32 31 31 28 27 27 25 23 24 24 23 17 19 16 17 17 17 15 14 14 14 13 12 10 10 8 14 12 13
20 27 27 31 32 32 31 29 28 26 25 22 21 21 21 18 15 11 12 13 13 16 16 12 7 8 11 10 14 12 8 5
11 18 25 26 29 32 32 31 26 26 22 23 22 21 19 17 11 13 13 11 10 11 12 13 12 14 14 14 9 10 8 3
3 5 8 24 24 24 32 29 26 21 24 23 21 17 15 13 13 9 10 11 12 13 15 17 17 16 16 16 11 11 8 9
8 4 3 5 11 15 22 22 20 19 18 22 21 17 17 13 11 11 14 15 15 18 18 19 20 20 18 15 13 9 11 14
11 9 7 6 3 3 9 17 16 16 9 13 16 14 20 18 15 15 15 17 17 16 15 14 13 14 13 12 12 12 13 15
10 16 14 10 9 8 7 13 16 19 18 18 19 14 17 16 15 14 14 15 16 16 15 15 14 13 12 11 10 11 14 14
7 7 16 16 15 19 17 16 15 16 18 18 16 17 20 17 15 15 15 14 14 15 15 12 12 9 8 8 10 11 9 12
6 3 18 18 22 18 15 14 13 14 17 18 17 18 17 16 16 16 15 14 13 13 11 11 9 7 10 12 7 6 8 10
2 2 18 20 20 19 17 17 15 17 18 17 17 17 17 16 17 16 15 14 12 12 11 9 10 11 14 9 4 4 6 9
7 10 14 21 22 20 20 17 15 16 17 17 17 17 17 16 16 15 15 15 14 11 11 11 9 12 14 9 2 3 6 9
Wind_Direction
152 152 153 158 157 163 167 167 171 176 185 209 217 218 204 201 186 164 169 187 175 194 178 194 183 180 178 192 195 208 178 220
155 154 156 163 172 171 174 176 183 191 201 203 201 172 199 196 183 183 179 189 179 187 222 176 168 192 189 195 190 186 214 108
153 151 151 163 171 179 186 190 190 191 195 199 188 191 200 199 191 170 177 189 185 196 219 174 180 213 195 172 179 187 215 173
169 167 165 168 183 194 195 191 185 189 201 199 187 189 193 197 165 174 184 195 195 197 209 188 182 216 188 175 188 198 207 156
179 174 178 179 187 201 205 198 184 192 205 188 184 190 203 195 174 178 182 188 208 201 202 206 187 204 195 184 190 207 224 176
180 185 186 191 193 197 206 211 202 195 192 199 177 192 199 207 199 165 176 185 211 220 207 199 200 191 205 191 195 199 207 152
195 183 186 194 195 200 194 202 208 205 183 197 192 193 213 209 175 178 185 190 185 205 209 203 204 213 195 200 212 185 146 116
190 188 188 189 194 197 196 196 210 211 182 192 203 203 202 223 203 181 187 184 185 194 194 212 215 204 190 196 177 138 139 138
190 192 187 191 194 192 195 200 207 212 203 194 197 207 203 209 220 182 186 187 179 181 195 213 221 191 174 158 141 137 139 138
207 193 193 190 189 191 193 200 205 211 205 199 200 198 208 211 210 180 184 169 176 181 194 189 142 98 105 104 125 120 121 105
244 214 195 190 188 188 192 196 203 205 209 198 203 203 202 209 176 183 165 153 142 158 156 144 124 121 124 121 106 107 112 137
247 268 226 193 194 188 187 188 196 206 206 196 193 189 179 158 165 177 161 146 140 129 124 121 119 113 112 113 128 144 166 210
152 191 228 271 200 178 173 180 192 209 210 183 181 171 155 164 149 131 125 126 132 133 132 132 140 154 160 152 148 163 196 218
155 158 174 197 212 212 164 170 186 205 197 139 126 110 118 120 122 121 125 131 128 129 133 133 130 127 138 151 170 193 215 230
194 168 170 170 162 164 122 77 75 83 93 97 105 109 109 112 115 111 118 123 126 124 127 131 138 145 162 175 199 220 230 242
233 205 156 146 122 88 85 82 84 94 97 100 103 107 105 111 113 117 116 119 123 126 126 131 142 161 183 198 222 234 247 259
11 232 137 128 109 109 101 95 93 103 106 103 106 105 104 114 116 117 117 118 120 123 130 142 158 188 206 216 237 272 295 314
262 280 113 112 121 120 119 107 107 106 108 111 112 116 119 123 125 124 125 125 125 136 154 177 194 210 220 208 175 270 304 305
163 121 124 110 120 120 120 122 126 126 126 125 124 123 124 126 123 125 131 139 154 174 189 191 212 102 100 101 90 293 320 330